Find Starlink 34950

NORAD ID: 65193 Int'l Des: 2025-175 Owner: SPXS Country: US Constellation: starlink operational
LEOCIRCULARRETROGRADESSO

Current View

Loading 3D Globe...

About Starlink 34950

Description loading...

Upcoming Passes

Passes for default location (London). Set your location on the main map for personalized predictions.

Altitude History

Loading altitude history...

Two-Line Element Set

1 65193U 25175V 26150.76707870 .00007373 00000-0 51430-3 0 9996
2 65193 97.4230 23.1053 0003083 107.1587 252.9978 15.05662082 44968
Epoch: May 30, 2026 • Age: 13 hours

Current Status

Altitude 561.1 km
Velocity 7.58 km/s
Sub-Earth Point -27.15°S, 32.89°E
Launch Date Aug 14, 2025
Age 0.7 years
Type internet

Technical Details

Classification Payload
Mass 575.00 kg
Dry Mass 530.00 kg
Total Mass 575.00 kg
Length 0.30 m
Diameter 4.10 m
Span 29.00 m
Shape Box + pan
Manufacturer SPXS
Bus Type Starlink V2MO
Phase Status In Orbit
Owner/State SPXS/US

Most Searched